Location: Unspecified
(0.0000°N, 0.0000°E)
Time: 16:09:10
(UTC+00:00)

Vanguard 3 - All Passes

Search period start: 13 May 2025 00:00
Search period end: 23 May 2025 00:00
Orbit: 508 x 3216 km, 33.3° (Epoch: 12 May)

Date Brightness Start Highest point End Pass type
(mag) Time Alt. Az. Time Alt. Az. Time Alt. Az.
13 May - 01:04:02 10° SW 01:16:15 50° SSE 01:23:10 10° ENE night (unlit)
13 May - 03:20:33 10° WSW 03:28:15 36° NW 03:33:03 10° NNE visible
13 May - 12:16:09 10° NNW 12:22:52 32° NE 12:33:39 10° E daylight
13 May - 14:25:40 10° WNW 14:35:38 77° SW 14:52:54 10° SE daylight
13 May - 16:39:54 10° W 16:52:19 34° SSW 17:08:53 10° SE daylight
13 May - 19:01:24 10° SW 19:13:06 19° S 19:24:55 10° SSE visible
13 May - 21:24:12 10° SSW 21:35:25 18° S 21:44:38 10° SE visible
13 May - 23:40:49 10° SW 23:54:00 33° SSE 00:02:21 10° E night (unlit)
14 May - 01:56:37 10° SW 02:08:10 85° NW 02:14:25 10° NE visible
14 May - 04:16:36 10° WNW 04:19:00 12° NW 04:21:03 10° NNW visible
14 May - 11:00:02 10° NNE 11:02:30 12° NE 11:05:23 10° ENE daylight
14 May - 13:06:05 10° NW 13:14:03 66° NE 13:28:26 10° ESE daylight
14 May - 15:17:40 10° W 15:28:29 48° SSW 15:45:31 10° SE daylight
14 May - 17:35:07 10° WSW 17:47:09 23° SSW 18:01:17 10° SSE daylight
14 May - 19:58:24 10° SW 20:09:29 17° S 20:19:44 10° SE visible
14 May - 22:17:16 10° SSW 22:30:27 25° SSE 22:40:03 10° ESE visible
15 May - 00:33:01 10° SW 00:46:56 56° SSE 00:54:45 10° ENE night (unlit)
15 May - 02:50:19 10° WSW 02:59:12 37° NW 03:04:35 10° NNE visible
15 May - 11:47:37 10° NNW 11:53:33 31° NE 12:03:02 10° E daylight
15 May - 13:56:59 10° WNW 14:05:52 72° SSW 14:21:46 10° SE daylight
15 May - 16:11:04 10° W 16:22:17 31° SSW 16:37:48 10° SSE daylight
15 May - 18:31:51 10° SW 18:43:01 18° S 18:54:46 10° SSE visible
15 May - 20:53:07 10° SSW 21:05:32 20° S 21:15:58 10° SE visible
15 May - 23:09:33 10° SW 23:24:25 38° SSE 23:33:53 10° E visible
16 May - 01:25:52 10° WSW 01:38:54 80° NW 01:45:55 10° NE visible
16 May - 03:46:29 10° WNW 03:50:00 13° NW 03:52:51 10° NNW visible
16 May - 10:32:33 10° NE 10:33:26 10° NE 10:34:21 10° NE daylight
16 May - 12:37:28 10° NW 12:44:34 68° NE 12:57:33 10° ESE daylight
16 May - 14:48:59 10° W 14:58:39 43° SSW 15:14:18 10° SE daylight
16 May - 17:06:11 10° WSW 17:17:06 22° SSW 17:30:23 10° SSE daylight
16 May - 19:28:07 10° SSW 19:39:27 18° S 19:50:20 10° SE visible
16 May - 21:46:00 10° SSW 22:00:38 28° SSE 22:11:28 10° ESE visible
17 May - 00:01:55 10° SW 00:17:25 62° SSE 00:26:12 10° ENE night (unlit)
17 May - 02:19:52 10° WSW 02:30:00 38° NW 02:36:05 10° NNE visible
17 May - 11:19:06 10° NNW 11:24:21 30° NE 11:32:36 10° E daylight
17 May - 13:28:24 10° WNW 13:36:19 66° SSW 13:50:41 10° SE daylight
17 May - 15:42:24 10° WSW 15:52:24 28° SSW 16:06:34 10° SSE daylight
17 May - 18:02:32 10° SW 18:12:58 18° S 18:24:22 10° SSE visible
17 May - 20:22:14 10° SSW 20:35:32 21° SSE 20:47:03 10° ESE visible
17 May - 22:38:17 10° SW 22:54:38 42° SSE 23:05:15 10° E visible
18 May - 00:54:57 10° WSW 01:09:27 77° NW 01:17:21 10° NE night (unlit)
18 May - 03:16:13 10° WNW 03:20:55 15° NW 03:24:34 10° N visible
18 May - 12:08:57 10° NW 12:15:15 70° NE 12:26:48 10° ESE daylight
18 May - 14:20:26 10° W 14:29:02 39° SSW 14:43:02 10° SE daylight
18 May - 16:37:27 10° SW 16:47:11 20° SSW 16:59:16 10° SSE daylight
18 May - 18:58:04 10° SSW 19:09:23 18° S 19:20:41 10° SE visible
18 May - 21:14:52 10° SSW 21:30:37 30° SSE 21:42:39 10° ESE visible
18 May - 23:30:44 10° SW 23:47:42 67° SSE 23:57:33 10° ENE visible
19 May - 01:49:13 10° WSW 02:00:40 39° NW 02:07:30 10° NNE visible
19 May - 10:50:37 10° NNW 10:55:15 29° NE 11:02:21 10° E daylight
19 May - 12:59:54 10° WNW 13:06:55 60° SSW 13:19:40 10° SE daylight
19 May - 15:13:55 10° WSW 15:22:42 25° SSW 15:35:12 10° SSE daylight
19 May - 17:33:27 10° SW 17:42:59 17° S 17:53:44 10° SSE daylight
19 May - 19:51:35 10° SSW 20:05:24 23° SSE 20:17:52 10° ESE visible
19 May - 22:07:05 10° SW 22:24:39 45° SSE 22:36:27 10° E visible
20 May - 00:23:55 10° WSW 00:39:48 74° NW 00:48:41 10° NE night (unlit)
20 May - 02:45:45 10° WNW 02:51:45 17° NW 02:56:13 10° N visible
20 May - 11:40:28 10° NW 11:46:05 74° NE 11:56:14 10° ESE daylight
20 May - 13:52:01 10° W 13:59:35 34° SSW 14:11:49 10° SE daylight
20 May - 16:08:59 10° SW 16:17:24 18° S 16:27:56 10° SSE daylight
20 May - 18:28:14 10° SSW 18:39:18 18° S 18:50:47 10° SE visible
20 May - 20:43:55 10° SSW 21:00:25 32° SSE 21:13:37 10° E visible
20 May - 22:59:34 10° SW 23:17:45 71° SE 23:28:45 10° ENE visible
21 May - 01:18:23 10° WSW 01:31:10 39° NW 01:38:52 10° NNE visible
21 May - 10:22:07 10° NNW 10:26:14 28° NE 10:32:20 10° E daylight
21 May - 12:31:29 10° WNW 12:37:42 53° SSW 12:48:47 10° SE daylight
21 May - 14:45:38 10° WSW 14:53:10 22° SSW 15:03:45 10° SSE daylight
21 May - 17:04:36 10° SSW 17:13:05 16° S 17:22:49 10° SSE daylight
21 May - 19:21:08 10° SSW 19:35:09 24° SSE 19:48:26 10° ESE visible
21 May - 21:36:00 10° SW 21:54:26 49° SSE 22:07:28 10° E visible
21 May - 23:52:49 10° WSW 00:09:57 72° NW 00:19:55 10° NE visible
22 May - 02:15:07 10° W 02:22:27 18° NW 02:27:48 10° N visible
22 May - 11:12:00 10° NW 11:17:03 79° NE 11:25:51 10° ESE daylight
22 May - 13:23:45 10° W 13:30:18 29° SSW 13:40:37 10° SSE daylight
22 May - 15:40:47 10° SW 15:47:45 16° S 15:56:23 10° SSE daylight
22 May - 17:58:37 10° SSW 18:09:12 18° SSE 18:20:38 10° SE visible
22 May - 20:13:10 10° SSW 20:30:04 34° SSE 20:44:22 10° E visible
22 May - 22:28:27 10° SW 22:47:35 75° SE 22:59:48 10° ENE visible
